Powrót do katalogu

NOAA 16 DEB

AktywnySSO
NORAD 41502·DEBRIS·🇺🇸 United States

Wystrzelony Sep 21, 2000 z Vandenberg Space Force Base

Loading…

Następne Przeloty (najbliższe 24 godziny)

TLE

ŚwieżeSource: Space-Track

Epoka: Sep 12, 2026, 02:00 UTC

1 41502U 00055MA  26255.08366831  .00001694  00000-0  74916-3 0  9997
2 41502  98.6469 304.6636 0009356 216.9683 143.0852 14.24513071543702

Śledź NOAA 16 DEB w czasie rzeczywistym z AllMySat

Download on the App Store